| time (UTC) | temp F | wind direction | speed MPH | gust MPH | rain 1hr in | rain 24hr in | rain mn in | humidity % | barometer mb |
| 20260504190612 | 79 | 167 | 16.0 | 24.0 | 0.00 | 0.00 | 0.00 | 62 | 1010.7 |
| 20260504190114 | 78 | 216 | 8.0 | 24.0 | 0.00 | 0.00 | 0.00 | 61 | 1010.7 |
| 20260504185612 | 78 | 169 | 24.0 | 23.0 | 0.00 | 0.00 | 0.00 | 61 | 1010.7 |
| 20260504185110 | 78 | 171 | 14.0 | 23.0 | 0.00 | 0.00 | 0.00 | 60 | 1010.8 |
| 20260504184612 | 78 | 241 | 12.0 | 26.0 | 0.00 | 0.00 | 0.00 | 61 | 1011.0 |
| 20260504184111 | 78 | 212 | 12.0 | 26.0 | 0.00 | 0.00 | 0.00 | 61 | 1010.9 |
| 20260504183612 | 78 | 158 | 11.0 | 25.0 | 0.00 | 0.00 | 0.00 | 61 | 1011.1 |
| 20260504183113 | 78 | 196 | 6.0 | 24.0 | 0.00 | 0.00 | 0.00 | 62 | 1011.2 |
| 20260504182611 | 78 | 200 | 15.0 | 20.0 | 0.00 | 0.00 | 0.00 | 62 | 1011.2 |
| 20260504182112 | 77 | 198 | 7.0 | 25.0 | 0.00 | 0.00 | 0.00 | 64 | 1011.4 |
| 20260504181613 | 77 | 207 | 9.0 | 25.0 | 0.00 | 0.00 | 0.00 | 63 | 1011.4 |
| 20260504181112 | 76 | 215 | 8.0 | 23.0 | 0.00 | 0.00 | 0.00 | 64 | 1011.5 |
| 20260504180610 | 77 | 192 | 16.0 | 20.0 | 0.00 | 0.00 | 0.00 | 62 | 1011.6 |
| 20260504180112 | 77 | 227 | 16.0 | 25.0 | 0.00 | 0.00 | 0.00 | 63 | 1011.6 |
| 20260504175613 | 77 | 200 | 10.0 | 26.0 | 0.00 | 0.00 | 0.00 | 62 | 1011.7 |
| 20260504175112 | 76 | 204 | 11.0 | 26.0 | 0.00 | 0.00 | 0.00 | 64 | 1011.8 |
| 20260504174611 | 76 | 220 | 11.0 | 23.0 | 0.00 | 0.00 | 0.00 | 64 | 1011.8 |
| 20260504174113 | 76 | 198 | 11.0 | 23.0 | 0.00 | 0.00 | 0.00 | 63 | 1012.1 |
| 20260504173612 | 76 | 149 | 15.0 | 24.0 | 0.00 | 0.00 | 0.00 | 63 | 1012.1 |
| 20260504173115 | 76 | 196 | 14.0 | 24.0 | 0.00 | 0.00 | 0.00 | 63 | 1012.1 |
| 20260504172626 | 76 | 215 | 16.0 | 23.0 | 0.00 | 0.00 | 0.00 | 63 | 1012.2 |
| 20260504172128 | 75 | 233 | 14.0 | 23.0 | 0.00 | 0.00 | 0.00 | 64 | 1012.3 |
| 20260504171629 | 75 | 193 | 10.0 | 22.0 | 0.00 | 0.00 | 0.00 | 64 | 1012.2 |
| 20260504171125 | 75 | 194 | 14.0 | 22.0 | 0.00 | 0.00 | 0.00 | 63 | 1012.3 |
| 20260504170625 | 75 | 186 | 13.0 | 19.0 | 0.00 | 0.00 | 0.00 | 63 | 1012.4 |
| 20260504170129 | 75 | 173 | 7.0 | 19.0 | 0.00 | 0.00 | 0.00 | 64 | 1012.4 |
| 20260504160126 | 72 | 194 | 4.0 | 25.0 | 0.00 | 0.00 | 0.00 | 64 | 1013.3 |
| 20260504151125 | 70 | 227 | 9.0 | 24.0 | 0.00 | 0.00 | 0.00 | 68 | 1013.4 |
| 20260504150624 | 70 | 217 | 18.0 | 24.0 | 0.00 | 0.00 | 0.00 | 68 | 1013.5 |
| 20260504150124 | 70 | 164 | 18.0 | 38.0 | 0.00 | 0.00 | 0.00 | 69 | 1013.7 |
| 20260504141124 | 67 | 220 | 7.0 | 24.0 | 0.00 | 0.00 | 0.00 | 72 | 1013.6 |
| 20260504140624 | 67 | 158 | 15.0 | 24.0 | 0.00 | 0.00 | 0.00 | 73 | 1013.8 |
| 20260504140122 | 67 | 165 | 13.0 | 20.0 | 0.00 | 0.00 | 0.00 | 73 | 1013.9 |
| 20260504130623 | 65 | 281 | 13.0 | 21.0 | 0.00 | 0.00 | 0.00 | 75 | 1014.0 |
| 20260504130123 | 64 | 212 | 12.0 | 20.0 | 0.00 | 0.00 | 0.00 | 76 | 1014.1 |
| 20260504120121 | 62 | 182 | 10.0 | 12.0 | 0.00 | 0.00 | 0.00 | 76 | 1013.7 |
| 20260504110619 | 63 | 203 | 9.0 | 16.0 | 0.00 | 0.00 | 0.00 | 74 | 1013.7 |
| 20260504110119 | 63 | 170 | 4.0 | 16.0 | 0.00 | 0.00 | 0.00 | 74 | 1013.7 |
| 20260504100117 | 64 | 167 | 9.0 | 15.0 | 0.00 | 0.00 | 0.00 | 72 | 1013.9 |
| 20260504090116 | 64 | 240 | 5.0 | 14.0 | 0.00 | 0.00 | 0.00 | 67 | 1014.4 |
| 20260504081613 | 65 | 193 | 5.0 | 17.0 | 0.00 | 0.00 | 0.00 | 65 | 1014.6 |
| 20260504081114 | 65 | 186 | 3.0 | 17.0 | 0.00 | 0.00 | 0.00 | 64 | 1014.7 |
| 20260504080612 | 65 | 213 | 5.0 | 15.0 | 0.00 | 0.00 | 0.00 | 64 | 1014.7 |
| 20260504080114 | 65 | 228 | 7.0 | 15.0 | 0.00 | 0.00 | 0.00 | 63 | 1014.8 |
| 20260504070114 | 66 | 213 | 5.0 | 11.0 | 0.00 | 0.00 | 0.00 | 62 | 1015.4 |
| 20260504060111 | 67 | 166 | 4.0 | 11.0 | 0.00 | 0.00 | 0.00 | 60 | 1016.0 |
| 20260504050612 | 69 | 192 | 6.0 | 11.0 | 0.00 | 0.00 | 0.00 | 56 | 1016.6 |
| 20260504050112 | 69 | 222 | 5.0 | 11.0 | 0.00 | 0.00 | 0.00 | 56 | 1016.7 |
| 20260504045615 | 69 | 193 | 5.0 | 13.0 | 0.00 | 0.00 | 0.00 | 56 | 1016.7 |
| 20260504045114 | 69 | 215 | 5.0 | 14.0 | 0.00 | 0.00 | 0.00 | 55 | 1016.7 |
| 20260504044610 | 69 | 192 | 6.0 | 14.0 | 0.00 | 0.00 | 0.00 | 55 | 1016.7 |
| 20260504044113 | 69 | 209 | 5.0 | 14.0 | 0.00 | 0.00 | 0.00 | 55 | 1016.7 |
| 20260504043612 | 69 | 189 | 6.0 | 11.0 | 0.00 | 0.00 | 0.00 | 55 | 1016.8 |
| 20260504043113 | 69 | 200 | 7.0 | 12.0 | 0.00 | 0.00 | 0.00 | 55 | 1016.8 |
| 20260504042613 | 70 | 175 | 4.0 | 12.0 | 0.00 | 0.00 | 0.00 | 55 | 1016.9 |
| 20260504042115 | 70 | 212 | 7.0 | 12.0 | 0.00 | 0.00 | 0.00 | 55 | 1016.9 |
| 20260504041611 | 69 | 166 | 7.0 | 12.0 | 0.00 | 0.00 | 0.00 | 55 | 1017.1 |
| 20260504041116 | 69 | 226 | 5.0 | 10.0 | 0.00 | 0.00 | 0.00 | 55 | 1017.0 |
| 20260504040613 | 70 | 188 | 2.0 | 10.0 | 0.00 | 0.00 | 0.00 | 55 | 1017.0 |
| 20260504040112 | 70 | 213 | 3.0 | 10.0 | 0.00 | 0.00 | 0.00 | 55 | 1016.9 |
| 20260504035612 | 70 | 221 | 2.0 | 11.0 | 0.00 | 0.00 | 0.00 | 55 | 1016.8 |
| 20260504035112 | 70 | 207 | 7.0 | 11.0 | 0.00 | 0.00 | 0.00 | 54 | 1016.9 |
| 20260504034612 | 70 | 226 | 6.0 | 9.0 | 0.00 | 0.00 | 0.00 | 54 | 1016.8 |
| 20260504034112 | 70 | 196 | 4.0 | 10.0 | 0.00 | 0.00 | 0.00 | 54 | 1016.8 |
| 20260504033616 | 70 | 171 | 4.0 | 10.0 | 0.00 | 0.00 | 0.00 | 53 | 1016.7 |
| 20260504033113 | 71 | 181 | 3.0 | 10.0 | 0.00 | 0.00 | 0.00 | 53 | 1016.8 |
| 20260504032610 | 71 | 190 | 3.0 | 10.0 | 0.00 | 0.00 | 0.00 | 53 | 1016.8 |
| 20260504032110 | 71 | 196 | 4.0 | 14.0 | 0.00 | 0.00 | 0.00 | 52 | 1016.8 |
| 20260504031613 | 71 | 189 | 6.0 | 14.0 | 0.00 | 0.00 | 0.00 | 52 | 1016.7 |
| 20260504031112 | 71 | 215 | 6.0 | 12.0 | 0.00 | 0.00 | 0.00 | 52 | 1016.7 |
| 20260504030613 | 71 | 190 | 5.0 | 12.0 | 0.00 | 0.00 | 0.00 | 51 | 1016.8 |
| 20260504030113 | 72 | 173 | 5.0 | 15.0 | 0.00 | 0.00 | 0.00 | 51 | 1016.6 |
| 20260504025613 | 72 | 213 | 9.0 | 15.0 | 0.00 | 0.00 | 0.00 | 51 | 1016.7 |
| 20260504025115 | 72 | 217 | 5.0 | 8.0 | 0.00 | 0.00 | 0.00 | 50 | 1016.6 |
| 20260504024610 | 72 | 211 | 4.0 | 9.0 | 0.00 | 0.00 | 0.00 | 50 | 1016.7 |
| 20260504024113 | 72 | 165 | 6.0 | 12.0 | 0.00 | 0.00 | 0.00 | 49 | 1016.6 |
| 20260504023610 | 72 | 181 | 4.0 | 12.0 | 0.00 | 0.00 | 0.00 | 49 | 1016.6 |
| 20260504023111 | 73 | 196 | 7.0 | 11.0 | 0.00 | 0.00 | 0.00 | 48 | 1016.6 |
| 20260504022612 | 73 | 198 | 6.0 | 11.0 | 0.00 | 0.00 | 0.00 | 48 | 1016.4 |
| 20260504022116 | 73 | 174 | 5.0 | 11.0 | 0.00 | 0.00 | 0.00 | 47 | 1016.4 |
| 20260504021613 | 73 | 209 | 5.0 | 14.0 | 0.00 | 0.00 | 0.00 | 47 | 1016.5 |
| 20260504021112 | 73 | 189 | 5.0 | 14.0 | 0.00 | 0.00 | 0.00 | 46 | 1016.5 |
| 20260504020614 | 74 | 186 | 3.0 | 11.0 | 0.00 | 0.00 | 0.00 | 46 | 1016.5 |
| 20260504020118 | 74 | 192 | 3.0 | 12.0 | 0.00 | 0.00 | 0.00 | 45 | 1016.5 |
| 20260504015618 | 74 | 159 | 8.0 | 15.0 | 0.00 | 0.00 | 0.00 | 45 | 1016.5 |
| 20260504015117 | 74 | 202 | 5.0 | 15.0 | 0.00 | 0.00 | 0.00 | 45 | 1016.4 |
| 20260504014617 | 74 | 169 | 7.0 | 18.0 | 0.00 | 0.00 | 0.00 | 45 | 1016.5 |
| 20260504014116 | 74 | 188 | 12.0 | 18.0 | 0.00 | 0.00 | 0.00 | 45 | 1016.4 |
| 20260504013618 | 74 | 148 | 10.0 | 15.0 | 0.00 | 0.00 | 0.00 | 45 | 1016.3 |
| 20260504013119 | 75 | 229 | 9.0 | 16.0 | 0.00 | 0.00 | 0.00 | 45 | 1016.2 |
| 20260504012616 | 75 | 198 | 6.0 | 16.0 | 0.00 | 0.00 | 0.00 | 44 | 1016.3 |
| 20260504012117 | 75 | 163 | 12.0 | 13.0 | 0.00 | 0.00 | 0.00 | 44 | 1016.2 |
| 20260504011616 | 75 | 209 | 6.0 | 14.0 | 0.00 | 0.00 | 0.00 | 44 | 1016.1 |
| 20260504011116 | 75 | 221 | 5.0 | 14.0 | 0.00 | 0.00 | 0.00 | 43 | 1016.2 |
| 20260504010616 | 76 | 211 | 7.0 | 14.0 | 0.00 | 0.00 | 0.00 | 43 | 1016.1 |
| 20260504010116 | 76 | 213 | 6.0 | 11.0 | 0.00 | 0.00 | 0.00 | 43 | 1016.0 |
| 20260504005616 | 76 | 204 | 8.0 | 14.0 | 0.00 | 0.00 | 0.00 | 42 | 1016.0 |
| 20260504005115 | 76 | 175 | 3.0 | 14.0 | 0.00 | 0.00 | 0.00 | 41 | 1016.0 |
| 20260504004615 | 77 | 201 | 8.0 | 15.0 | 0.00 | 0.00 | 0.00 | 40 | 1016.1 |
| 20260504004117 | 77 | 214 | 6.0 | 17.0 | 0.00 | 0.00 | 0.00 | 39 | 1016.0 |
| 20260504003616 | 77 | 207 | 7.0 | 20.0 | 0.00 | 0.00 | 0.00 | 39 | 1016.0 |
| 20260504003116 | 77 | 190 | 11.0 | 20.0 | 0.00 | 0.00 | 0.00 | 38 | 1016.0 |
| 20260504002616 | 78 | 187 | 8.0 | 19.0 | 0.00 | 0.00 | 0.00 | 39 | 1016.1 |
| 20260504002114 | 78 | 198 | 8.0 | 17.0 | 0.00 | 0.00 | 0.00 | 39 | 1016.1 |
| 20260504001617 | 78 | 197 | 10.0 | 17.0 | 0.00 | 0.00 | 0.00 | 39 | 1016.2 |
| 20260504001115 | 79 | 200 | 6.0 | 18.0 | 0.00 | 0.00 | 0.00 | 38 | 1016.2 |
| 20260504000615 | 79 | 223 | 6.0 | 18.0 | 0.00 | 0.00 | 0.00 | 38 | 1016.2 |
| 20260504000115 | 79 | 196 | 5.0 | 14.0 | 0.00 | 0.00 | 0.00 | 39 | 1016.1 |
| 20260503235616 | 79 | 155 | 8.0 | 18.0 | 0.00 | 0.00 | 0.00 | 38 | 1016.1 |
| 20260503235114 | 79 | 165 | 9.0 | 18.0 | 0.00 | 0.00 | 0.00 | 38 | 1016.3 |
| 20260503234614 | 79 | 204 | 16.0 | 18.0 | 0.00 | 0.00 | 0.00 | 39 | 1016.2 |
| 20260503234113 | 79 | 148 | 6.0 | 14.0 | 0.00 | 0.00 | 0.00 | 39 | 1016.3 |
| 20260503233614 | 80 | 169 | 7.0 | 14.0 | 0.00 | 0.00 | 0.00 | 39 | 1016.4 |
| 20260503233113 | 80 | 188 | 5.0 | 16.0 | 0.00 | 0.00 | 0.00 | 38 | 1016.2 |
| 20260503232614 | 80 | 213 | 7.0 | 16.0 | 0.00 | 0.00 | 0.00 | 37 | 1016.5 |
| 20260503232113 | 80 | 156 | 3.0 | 19.0 | 0.00 | 0.00 | 0.00 | 37 | 1016.3 |
| 20260503231613 | 80 | 219 | 3.0 | 19.0 | 0.00 | 0.00 | 0.00 | 37 | 1016.5 |
| 20260503231112 | 80 | 212 | 4.0 | 18.0 | 0.00 | 0.00 | 0.00 | 36 | 1016.5 |
| 20260503230613 | 80 | 221 | 7.0 | 17.0 | 0.00 | 0.00 | 0.00 | 36 | 1016.7 |
| 20260503230113 | 80 | 221 | 10.0 | 17.0 | 0.00 | 0.00 | 0.00 | 36 | 1016.8 |
| 20260503225614 | 80 | 207 | 7.0 | 17.0 | 0.00 | 0.00 | 0.00 | 37 | 1016.7 |
| 20260503225112 | 80 | 234 | 11.0 | 19.0 | 0.00 | 0.00 | 0.00 | 37 | 1016.6 |
| 20260503224613 | 80 | 206 | 9.0 | 19.0 | 0.00 | 0.00 | 0.00 | 37 | 1016.6 |
| 20260503224114 | 81 | 238 | 6.0 | 15.0 | 0.00 | 0.00 | 0.00 | 36 | 1016.6 |
| 20260503223612 | 81 | 226 | 8.0 | 16.0 | 0.00 | 0.00 | 0.00 | 36 | 1016.6 |
| 20260503223112 | 81 | 180 | 6.0 | 16.0 | 0.00 | 0.00 | 0.00 | 36 | 1016.6 |
| 20260503221111 | 81 | 228 | 6.0 | 17.0 | 0.00 | 0.00 | 0.00 | 35 | 1016.8 |
| 20260503220615 | 81 | 236 | 9.0 | 17.0 | 0.00 | 0.00 | 0.00 | 36 | 1016.9 |
| 20260503220111 | 81 | 192 | 15.0 | 16.0 | 0.00 | 0.00 | 0.00 | 35 | 1016.9 |
| 20260503215641 | 81 | 238 | 5.0 | 14.0 | 0.00 | 0.00 | 0.00 | 36 | 1017.0 |
| 20260503204511 | 81 | 190 | 4.0 | 18.0 | 0.00 | 0.00 | 0.00 | 35 | 1018.4 |
| 20260503204010 | 81 | 219 | 9.0 | 17.0 | 0.00 | 0.00 | 0.00 | 34 | 1018.5 |
| 20260503203513 | 81 | 182 | 8.0 | 18.0 | 0.00 | 0.00 | 0.00 | 36 | 1018.5 |
| 20260503203012 | 81 | 238 | 6.0 | 18.0 | 0.00 | 0.00 | 0.00 | 34 | 1018.6 |
| 20260503202513 | 81 | 219 | 6.0 | 17.0 | 0.00 | 0.00 | 0.00 | 34 | 1018.7 |
| 20260503202016 | 81 | 200 | 8.0 | 20.0 | 0.00 | 0.00 | 0.00 | 34 | 1018.8 |
| 20260503201511 | 81 | 188 | 6.0 | 20.0 | 0.00 | 0.00 | 0.00 | 35 | 1018.8 |
| 20260503201013 | 81 | 173 | 9.0 | 15.0 | 0.00 | 0.00 | 0.00 | 36 | 1018.8 |
| 20260503200511 | 81 | 159 | 4.0 | 16.0 | 0.00 | 0.00 | 0.00 | 35 | 1018.9 |
| 20260503200014 | 81 | 186 | 3.0 | 16.0 | 0.00 | 0.00 | 0.00 | 36 | 1019.0 |
| 20260503195512 | 81 | 178 | 10.0 | 14.0 | 0.00 | 0.00 | 0.00 | 35 | 1019.0 |
| 20260503195013 | 81 | 217 | 7.0 | 18.0 | 0.00 | 0.00 | 0.00 | 35 | 1019.1 |
| 20260503194514 | 81 | 209 | 7.0 | 18.0 | 0.00 | 0.00 | 0.00 | 35 | 1019.2 |
| 20260503194012 | 80 | 197 | 7.0 | 16.0 | 0.00 | 0.00 | 0.00 | 35 | 1019.2 |
| 20260503193514 | 80 | 167 | 4.0 | 16.0 | 0.00 | 0.00 | 0.00 | 37 | 1019.2 |
| 20260503193014 | 81 | 193 | 9.0 | 14.0 | 0.00 | 0.00 | 0.00 | 35 | 1019.4 |
| 20260503192511 | 81 | 200 | 7.0 | 14.0 | 0.00 | 0.00 | 0.00 | 34 | 1019.3 |
| 20260503192013 | 81 | 213 | 8.0 | 13.0 | 0.00 | 0.00 | 0.00 | 34 | 1019.5 |
| 20260503191512 | 81 | 244 | 7.0 | 10.0 | 0.00 | 0.00 | 0.00 | 38 | 1019.7 |
| 20260503191013 | 81 | 240 | 5.0 | 15.0 | 0.00 | 0.00 | 0.00 | 38 | 1019.7 |